Tracking 31027 objects as of 19-Jul-2025
HD Live streaming from Space Station
objects crossing your sky now

CZ-2C DEB

Track CZ-2C DEB now!
10-day predictions


NORAD ID: 37733
Int'l Code: 2011-030D
Perigee: 670.7 km
Apogee: 854.5 km
Inclination: 98.5 °
Period: 99.9 minutes
Semi major axis: 7133 km
RCS: 0.096 m2 (small)
Launch date: July 6, 2011
Source: People's Republic of China (PRC)
Launch site: Jiuquan Satellite Launch Center, China (JSC)

Note: This is SATELLITE DEBRIS
Your satellite tracking list
FENGYUN 1C DEB
Track 1 satellite(s)




NASA's NSSDC Master Catalog

Two Line Element Set (TLE):
1 37733U 11030D   25199.44705417  .00001499  00000-0  43696-3 0  9990
2 37733  98.5253 152.4853 0128802 157.0375 323.4593 14.40912466731618
Source of the keplerian elements: AFSPC